User: anonymous   Login
Location: ??????
(38.1303°N, 24.0039°E)
Time: 20:12:45
(UTC+00:00)
Language:

FENGYUN 1C DEB - Orbit

View from above orbital plane
View from above orbital plane
View from above satellite
View from above satellite

Ground track
Ground track

The orbit data is extracted from the following two-line orbital elements,

1 30106U 99025RK  22015.93138260  .00003994  00000-0  13745-2 0  9994
2 30106  98.9564 178.4048 0122798 161.5681 351.7051 14.32393377778772
Epoch (UTC): 15 January 2022 22:21:11
Eccentricity: 0.0122798
inclination: 98.9564°
perigee height: 696 km
apogee height: 871 km
right ascension of ascending node: 178.4048°
argument of perigee: 161.5681°
revolutions per day: 14.32393377
mean anomaly at epoch: 351.7051°
orbit number at epoch: 77877

The dashed part of the orbit path shows where the satellite is in the earth's shadow,  

DLR